Regional Weather Roundup
Issued by NWS Charleston, WV

Home | Current Version | Previous Version | Text Only | Print | Product List | Glossary On
Versions: 1 2 3 4 5 6 7 8 9 10 11 12 13 14 15 16 17 18 19 20 21 22 23 24 25 26 27 28 29 30 31 32 33 34 35 36 37 38 39 40 41 42 43 44 45 46 47 48 49 50
000
ASUS41 KRLX 111410
RWRRLX
West Virginia Regional Weather Roundup
National Weather Service Charleston WV
900 AM EST MON DEC 11 2017

Note: "fair" indicates few or no clouds below 12,000 feet with no
significant weather and/or obstructions to visibility.

WVZ003-111500-
Northern Panhandle of West Virginia

CITY           SKY/WX    TMP DP  RH WIND       PRES   REMARKS
WHEELING       CLOUDY    30  18  60 W8        30.03S
$$

WVZ009-111500-
Northwest West Virginia

CITY           SKY/WX    TMP DP  RH WIND       PRES   REMARKS
PARKERSBURG    SUNNY     32  21  64 VRB5      30.09F
$$

WVZ006-111500-
Western West Virginia

CITY           SKY/WX    TMP DP  RH WIND       PRES   REMARKS
HUNTINGTON     SUNNY     31  22  69 CALM      30.09F
$$

WVZ015-111500-
West Central West Virginia

CITY           SKY/WX    TMP DP  RH WIND       PRES   REMARKS
CHARLESTON     MOSUNNY   34  22  61 S6        30.08F
$$

WVZ022-031-111500-
North Central West Virginia

CITY           SKY/WX    TMP DP  RH WIND       PRES   REMARKS
CLARKSBURG     SUNNY     34  21  59 SW9       30.05F
MORGANTOWN     CLOUDY    33  19  56 VRB6      30.05F
$$

WVZ025-035-042-045-111500-
Southern West Virginia

CITY           SKY/WX    TMP DP  RH WIND       PRES   REMARKS
BECKLEY        SUNNY     30  20  66 W5        30.04R
LOGAN            N/A     36  23  60 CALM      30.07F
BLUEFIELD      SUNNY     29  20  69 W10       30.05R
LEWISBURG      SUNNY     32  22  66 W5        30.05R
$$

WVZ047-111500-
Northern Mountains of West Virginia

CITY           SKY/WX    TMP DP  RH WIND       PRES   REMARKS
ELKINS         CLOUDY    32  20  61 W10G16    30.04R
$$

WVZ052-111500-
Eastern Panhandle of West Virginia

CITY           SKY/WX    TMP DP  RH WIND       PRES   REMARKS
MARTINSBURG    SUNNY     37  23  56 W3        30.05R
PETERSBURG     SUNNY     37  22  54 W6        30.06R
$$



USA.gov is the U.S. government's official web portal to all federal, state and local government web resources and services.